Weather History for KFOK - September, 2013

Change the Weather History Date:

Saturday, September 21, 2013

  Actual Average (KISP) Record (KISP)
Temperature  
Mean Temperature 60 °F 64 °F  
Max Temperature 75 °F 72 °F 82 °F (1989)
Min Temperature 46 °F 55 °F 43 °F (1991)
Degree Days  
Heating Degree Days 4 3  
Month to date heating degree days 31  
Since 1 July heating degree days 36  
Cooling Degree Days 0 2  
Month to date cooling degree days 80  
Year to date cooling degree days 766  
Growing Degree Days 10 (Base 50)    
Moisture  
Dew Point 56 °F    
Average Humidity 88    
Maximum Humidity 100    
Minimum Humidity 71    
Precipitation  
Precipitation 0.00 in 0.13 in 0.58 in (2001)
Month to date precipitation 2.46  
Year to date precipitation 33.60  
Snow  
Snow 0.00 in 0.00 in - ()
Month to date snowfall 0.0  
Since 1 July snowfall 0.0  
Snow Depth -    
Sea Level Pressure  
Sea Level Pressure 29.94 in    
Wind  
Wind Speed 3 mph (SSE)    
Max Wind Speed 15 mph    
Max Gust Speed 24 mph    
Visibility 9 miles    
Events      
T = Trace of Precipitation, MM = Missing Value Source: NWS Daily Summary

Daily Weather History Graph

Daily Weather History Graph

Search for Another Location

Airport or City:

Trip Planner

Search our weather history database for the weather conditions in past years. The results will help you decide how hot, cold, wet, or windy it might be!

Date:

Astronomy

Sep. 21, 2013 Rise Set
Actual Time 6:37 AM EDT 6:48 PM EDT
Civil Twilight 6:09 AM EDT 7:16 PM EDT
Nautical Twilight 5:37 AM EDT 7:48 PM EDT
Astronomical Twilight 5:04 AM EDT 8:21 PM EDT
Moon 7:56 PM EDT (9/21) 8:53 AM EDT (9/21)
Length of Visible Light 13h 06m
Length of Day
12h 11m
Waning Gibbous, 94% of the Moon is Illuminated
Sep 21
Waning Gibbous
Sep 26
Last Quarter
Oct 4
New
Oct 11
First Quarter
Oct 18
Full

Hourly Weather History & Observations

Time (EDT) Temp. Dew Point Humidity Pressure Visibility Wind Dir Wind Speed Gust Speed Precip Events Conditions
12:53 AM 46.9 °F 44.1 °F 90% 30.05 in 10.0 mi Calm Calm - N/A   Partly Cloudy
1:53 AM 46.0 °F 44.1 °F 93% 30.05 in 10.0 mi Calm Calm - N/A   Partly Cloudy
2:13 AM 48.2 °F 46.4 °F 93% 30.04 in 10.0 mi Calm Calm - N/A   Mostly Cloudy
2:53 AM 48.9 °F 46.9 °F 93% 30.03 in 10.0 mi Calm Calm - N/A   Scattered Clouds
3:35 AM 48.2 °F 46.4 °F 93% 30.03 in 10.0 mi Calm Calm - N/A   Scattered Clouds
3:44 AM 48.2 °F 46.4 °F 93% 30.03 in 4.0 mi Calm Calm - N/A   Mostly Cloudy
3:53 AM 46.9 °F 45.0 °F 93% 30.03 in 10.0 mi NE 3.5 mph - N/A   Mostly Cloudy
4:35 AM 48.2 °F 46.4 °F 93% 30.02 in 10.0 mi Calm Calm - N/A   Overcast
4:53 AM 50.0 °F 48.0 °F 93% 30.01 in 10.0 mi Calm Calm - N/A   Overcast
5:11 AM 50.0 °F 48.2 °F 94% 30.01 in 10.0 mi Calm Calm - N/A   Scattered Clouds
5:29 AM 48.2 °F 46.4 °F 93% 30.01 in 2.0 mi Calm Calm - N/A   Mostly Cloudy
5:44 AM 48.2 °F 46.4 °F 93% 30.01 in 9.0 mi Calm Calm - N/A   Mostly Cloudy
5:51 AM 48.2 °F 46.4 °F 93% 30.01 in 7.0 mi Calm Calm - N/A   Overcast
5:53 AM 48.0 °F 46.0 °F 93% 30.01 in 6.0 mi Calm Calm - N/A   Overcast
6:45 AM 48.2 °F 46.4 °F 93% 30.01 in 1.2 mi Calm Calm - N/A   Overcast
6:50 AM 48.2 °F 46.4 °F 93% 30.01 in 4.0 mi Calm Calm - N/A   Overcast
6:53 AM 48.9 °F 46.9 °F 93% 30.01 in 9.0 mi Calm Calm - N/A   Overcast
7:53 AM 55.9 °F 54.0 °F 93% 30.01 in 10.0 mi Calm Calm - N/A   Overcast
8:04 AM 57.2 °F 55.4 °F 94% 30.01 in 10.0 mi Calm Calm - N/A   Overcast
8:16 AM 57.2 °F 57.2 °F 100% 30.00 in 10.0 mi Calm Calm - N/A   Overcast
8:24 AM 59.0 °F 57.2 °F 94% 30.00 in 10.0 mi Calm Calm - N/A   Overcast
8:53 AM 66.0 °F 63.0 °F 90% 30.00 in 10.0 mi SE 3.5 mph - N/A   Overcast
9:53 AM 69.1 °F 64.0 °F 84% 29.98 in 10.0 mi SE 5.8 mph - N/A   Overcast
10:53 AM 72.0 °F 63.0 °F 73% 29.96 in 10.0 mi SE 11.5 mph - N/A   Overcast
11:06 AM 71.6 °F 62.6 °F 73% 29.95 in 10.0 mi SE 6.9 mph - N/A   Overcast
11:53 AM 71.1 °F 64.9 °F 81% 29.94 in 10.0 mi SE 10.4 mph - N/A   Overcast
12:53 PM 71.1 °F 66.0 °F 84% 29.92 in 10.0 mi SSE 6.9 mph - N/A   Overcast
1:53 PM 75.0 °F 64.9 °F 71% 29.89 in 10.0 mi South 12.7 mph 21.9 mph N/A   Scattered Clouds
2:53 PM 75.0 °F 64.9 °F 71% 29.87 in 10.0 mi South 13.8 mph 21.9 mph N/A   Partly Cloudy
3:53 PM 73.9 °F 64.0 °F 71% 29.85 in 10.0 mi South 13.8 mph 24.2 mph N/A   Clear
4:53 PM 73.0 °F 64.9 °F 76% 29.83 in 10.0 mi South 12.7 mph 23.0 mph N/A   Clear
5:53 PM 71.1 °F 64.9 °F 81% 29.82 in 10.0 mi South 11.5 mph 17.3 mph N/A   Clear
6:53 PM 69.1 °F 64.9 °F 87% 29.81 in 10.0 mi South 9.2 mph - N/A   Partly Cloudy
7:53 PM 69.1 °F 66.0 °F 90% 29.81 in 10.0 mi South 10.4 mph 17.3 mph N/A   Clear
8:53 PM 69.1 °F 66.9 °F 93% 29.79 in 10.0 mi South 9.2 mph 18.4 mph N/A   Mostly Cloudy
9:15 PM 69.8 °F 66.2 °F 88% 29.78 in 10.0 mi SSE 10.4 mph 19.6 mph N/A   Overcast
9:53 PM 70.0 °F 68.0 °F 93% 29.78 in 10.0 mi South 12.7 mph 21.9 mph N/A   Scattered Clouds
10:53 PM 70.0 °F 68.0 °F 93% 29.75 in 10.0 mi SSE 12.7 mph 20.7 mph N/A   Overcast
11:03 PM 69.8 °F 66.2 °F 88% 29.75 in 10.0 mi South 12.7 mph 20.7 mph N/A   Mostly Cloudy
11:53 PM 70.0 °F 66.0 °F 87% 29.74 in 10.0 mi South 15.0 mph 21.9 mph N/A   Mostly Cloudy